Salina, KS

3:36 AM CST on January 23, 2017 (GMT -0600)
Salina Municipal

Weather History for KSLN - February, 2013

Change the Weather History Date:

Thursday, February 7, 2013

  Actual Average Record
Temperature  
Mean Temperature 44 °F 33 °F  
Max Temperature 55 °F 44 °F 74 °F (2015)
Min Temperature 32 °F 22 °F -13 °F (1971)
Degree Days  
Heating Degree Days 21 32  
Month to date heating degree days 182 226  
Since 1 July heating degree days 2947 3242  
Cooling Degree Days 0 0  
Month to date cooling degree days 0 0  
Year to date cooling degree days 0 0  
Moisture  
Dew Point 42 °F    
Average Humidity 72    
Maximum Humidity 100    
Minimum Humidity 43    
Precipitation  
Precipitation 1.14 in 0.03 in 1.14 in (2013)
Month to date precipitation 1.16 0.24  
Year to date precipitation 2.04 0.87  
Sea Level Pressure  
Sea Level Pressure 29.95 in    
Wind  
Wind Speed 12 mph (North)    
Max Wind Speed 24 mph    
Max Gust Speed 30 mph    
Visibility 5 miles    
Events Rain , Thunderstorm    
T = Trace of Precipitation, MM = Missing Value Source: NWS Daily Summary

Daily Weather History Graph

Daily Weather History Graph

Search for Another Location

Airport or City:

Trip Planner

Search our weather history database for the weather conditions in past years. The results will help you decide how hot, cold, wet, or windy it might be!

Date:

Astronomy

Feb. 07, 2013 Rise Set
Actual Time 7:30 AM CST 5:59 PM CST
Civil Twilight 7:02 AM CST 6:27 PM CST
Nautical Twilight 6:31 AM CST 6:58 PM CST
Astronomical Twilight 6:00 AM CST 7:29 PM CST
Moon 5:10 AM CST (2/7) 3:26 PM CST (2/7)
Length of Visible Light 11h 24m
Length of Day
10h 29m
Waning Crescent, 9% of the Moon is Illuminated
Feb 7
Waning Crescent
Feb 10
New
Feb 17
First Quarter
Feb 25
Full
Mar 4
Last Quarter

Hourly Weather History & Observations

Time (CST) Temp. Windchill Dew Point Humidity Pressure Visibility Wind Dir Wind Speed Gust Speed Precip Events Conditions
12:06 AM 46.4 °F - 44.6 °F 93% 29.87 in 1.5 mi Calm Calm - N/A   Mostly Cloudy
12:18 AM 48.2 °F - 46.4 °F 93% 29.86 in 1.8 mi Calm Calm - N/A   Overcast
12:29 AM 48.2 °F - 46.4 °F 93% 29.86 in 2.0 mi Calm Calm - N/A   Overcast
12:53 AM 50.0 °F - 46.9 °F 89% 29.85 in 2.0 mi Calm Calm - 0.00 in Rain Light Rain
1:45 AM 50.0 °F - 48.2 °F 94% 29.83 in 2.5 mi Calm Calm - 0.00 in Thunderstorm Overcast
1:53 AM 50.0 °F - 48.9 °F 96% 29.82 in 2.5 mi Calm Calm - 0.00 in Rain , Thunderstorm Light Rain
2:21 AM 53.6 °F - 51.8 °F 94% 29.84 in 3.0 mi Variable 6.9 mph - 0.01 in Rain , Thunderstorm Thunderstorms and Rain
2:30 AM 51.8 °F - 48.2 °F 88% 29.85 in 2.0 mi WNW 10.4 mph - 0.06 in Rain , Thunderstorm Heavy Thunderstorms and Rain
2:38 AM 51.8 °F - 50.0 °F 94% 29.85 in 1.2 mi SSW 5.8 mph - 0.18 in Rain , Thunderstorm Heavy Thunderstorms and Rain
2:46 AM 51.8 °F - 50.0 °F 94% 29.85 in 1.5 mi SE 5.8 mph - 0.24 in Rain , Thunderstorm Heavy Thunderstorms and Rain
2:53 AM 52.0 °F - 50.0 °F 93% 29.83 in 1.8 mi Calm Calm - 0.26 in Rain , Thunderstorm Thunderstorms and Rain
2:58 AM 51.8 °F - 50.0 °F 94% 29.83 in 2.0 mi SSE 6.9 mph - 0.02 in Rain Heavy Rain
3:07 AM 53.6 °F - 50.0 °F 88% 29.84 in 3.0 mi SSW 5.8 mph - 0.04 in Rain , Thunderstorm Heavy Rain
3:20 AM 51.8 °F - 50.0 °F 94% 29.85 in 2.5 mi NW 6.9 mph - 0.11 in Rain , Thunderstorm Heavy Rain
3:29 AM 51.8 °F - 50.0 °F 94% 29.85 in 1.8 mi NNW 11.5 mph - 0.15 in Rain , Thunderstorm Heavy Rain
3:36 AM 51.8 °F - 50.0 °F 94% 29.85 in 1.8 mi NNW 16.1 mph - 0.20 in Rain , Thunderstorm Heavy Rain
3:40 AM 51.8 °F - 48.2 °F 88% 29.85 in 1.8 mi North 17.3 mph 21.9 mph 0.23 in Rain Heavy Rain
3:44 AM 51.8 °F - 50.0 °F 94% 29.85 in 2.0 mi NNW 16.1 mph - 0.25 in Rain , Thunderstorm Heavy Rain
3:53 AM 52.0 °F - 50.0 °F 93% 29.85 in 2.5 mi NNW 8.1 mph - 0.30 in Rain , Thunderstorm Heavy Rain
3:58 AM 51.8 °F - 50.0 °F 94% 29.86 in 2.0 mi North 15.0 mph - 0.02 in Rain Heavy Rain
4:06 AM 51.8 °F - 48.2 °F 88% 29.85 in 2.5 mi North 12.7 mph - 0.06 in Rain Heavy Rain
4:09 AM 51.8 °F - 48.2 °F 88% 29.85 in 3.0 mi North 16.1 mph - 0.07 in Rain , Thunderstorm Heavy Rain
4:29 AM 51.8 °F - 48.2 °F 88% 29.86 in 3.0 mi North 11.5 mph - 0.14 in Rain Heavy Rain
4:45 AM 51.8 °F - 48.2 °F 88% 29.88 in 3.0 mi NNW 10.4 mph - 0.19 in Rain Rain
4:53 AM 51.1 °F - 48.9 °F 92% 29.88 in 3.0 mi North 16.1 mph - 0.22 in Rain Heavy Rain
5:21 AM 50.0 °F - 46.4 °F 87% 29.90 in 3.0 mi North 16.1 mph - 0.11 in Rain Heavy Rain
5:53 AM 48.0 °F - 45.0 °F 89% 29.94 in 4.0 mi North 13.8 mph - 0.24 in Rain Rain
6:23 AM 46.4 °F 40.4 °F 44.6 °F 93% 29.94 in 4.0 mi North 13.8 mph - 0.07 in Rain Rain
6:34 AM 46.4 °F 39.5 °F 42.8 °F 87% 29.95 in 4.0 mi North 17.3 mph - 0.09 in Rain Rain
6:53 AM 45.0 °F 37.6 °F 42.1 °F 90% 29.96 in 5.0 mi North 17.3 mph - 0.11 in Rain Light Rain
7:53 AM 41.0 °F 33.5 °F 36.0 °F 82% 29.99 in 10.0 mi North 13.8 mph - 0.01 in   Scattered Clouds
8:53 AM 42.1 °F 34.9 °F 36.0 °F 79% 30.02 in 10.0 mi NNW 13.8 mph - N/A   Overcast
9:53 AM 45.0 °F 37.9 °F 36.0 °F 71% 30.04 in 10.0 mi North 16.1 mph - N/A   Clear
10:53 AM 46.9 °F - 36.0 °F 66% 30.06 in 10.0 mi North 19.6 mph 25.3 mph N/A   Clear
11:53 AM 46.0 °F 39.0 °F 35.1 °F 66% 30.09 in 10.0 mi NNW 17.3 mph - N/A   Clear
12:53 PM 50.0 °F - 36.0 °F 59% 30.07 in 10.0 mi North 17.3 mph - N/A   Clear
1:53 PM 53.1 °F - 36.0 °F 52% 30.05 in 10.0 mi North 18.4 mph - N/A   Clear
2:53 PM 55.0 °F - 33.1 °F 43% 30.05 in 10.0 mi North 21.9 mph - N/A   Clear
3:53 PM 54.0 °F - 33.1 °F 45% 30.07 in 10.0 mi NNW 18.4 mph - N/A   Clear
4:53 PM 53.1 °F - 32.0 °F 45% 30.09 in 10.0 mi North 19.6 mph - N/A   Clear
5:53 PM 48.0 °F - 28.9 °F 48% 30.13 in 10.0 mi North 11.5 mph - N/A   Clear
6:53 PM 43.0 °F 38.2 °F 30.9 °F 62% 30.17 in 10.0 mi North 8.1 mph - N/A   Clear
7:53 PM 41.0 °F 36.4 °F 30.0 °F 65% 30.19 in 10.0 mi North 6.9 mph - N/A   Clear
8:53 PM 42.1 °F 37.7 °F 28.9 °F 60% 30.20 in 10.0 mi NNE 6.9 mph - N/A   Clear
9:53 PM 39.9 °F 35.1 °F 28.9 °F 65% 30.21 in 10.0 mi NE 6.9 mph - N/A   Clear
10:53 PM 37.0 °F 32.4 °F 28.9 °F 73% 30.24 in 10.0 mi NNE 5.8 mph - N/A   Clear
11:53 PM 32.0 °F 27.5 °F 26.1 °F 79% 30.26 in 10.0 mi Variable 4.6 mph - N/A   Clear